sat.trackr.live / text

‹ back to catalog

STARLINK-31214

NORAD 58871 · 2024-019U

PAYLOAD ACTIVE UNKNOWN

§ Identity

Operator
Country
US
Launch date
2024-01-29
Launch site
AFETR
Launch vehicle
Mass (kg)
RCS (m²)

Purposes: comms

External: N2YO · Heavens-Above · Gunter

§ Orbital elements

Epoch: 2026-05-25T02:47:52.725408Z

Period
94.27 min
Inclination
42.9998°
Eccentricity
0.0001433
Mean motion
15.27575743 rev/d
Perigee alt
482.1 km
Apogee alt
484.0 km
Semi-major
6,861.2 km
B*
2.7765e-4
RAAN
177.0547°
Arg perigee
271.7700°
Mean anomaly
88.2988°
Rev number
13,075

§ Raw data

STARLINK-312141 58871U 24019U   26145.11658247  .00007385  00000+0  27765-3 0  99992 58871  42.9998 177.0547 0001433 271.7700  88.2988 15.27575743130753

JSON: /api/v1/satellites/58871 · /tle

For live sub-satellite position, see the globe view (requires WebGL).

§ Visibility from observer

Set your observer location to see the next 7 days of passes ≥ 10°. The values pass through the URL so the page stays shareable.

No JS? Fill the form by hand. The geolocation button needs JavaScript.